Zurück zum Katalog

ATLAS 2A CENTAUR R/B

AktivHEO
NORAD 26389·ROCKET BODY·🇺🇸 United States

Gestartet Jun 30, 2000 von Cape Canaveral Space Force Station

Loading…

Nächste Überflüge (nächste 24 Stunden)

TLE

AktuellSource: Space-Track

Epoche: Sep 14, 2026, 10:35 UTC

1 26389U 00034B   26257.44097943  .00011473  00000-0  12260-2 0  9996
2 26389  26.8351 246.3480 4848171  37.4291 348.1092  5.90638620423196

Verfolge ATLAS 2A CENTAUR R/B in Echtzeit mit AllMySat

Download on the App Store